Notices

What's New in latest Release from April 7th, 2021:

- Updated Glossary, including Speed of Maximum Gust, and Total Hourly Precipitation

- Updated national and regional climate services offices contacts and prices information

- Addition of station inventory lists for 1981-2010, 1971-2000, and 1961-1990 Normals.

If you haven't already, please take our survey and provide feedback about our website: https://eccc.sondage-survey.ca/f/LanguageSelection.aspx?s=442ca660-fcf1-47c0-95a9-59707d6fd709

Hourly Data Report for October 13, 2019

PINAWA
MANITOBA
Current Station Operator: ECCC - MSC

50°10'38.020" N
96°03'53.000" W
268.00 m
503B1ER
71448
WEA

Download Data

Hourly Data (October 2019)
Hourly Data Report for October 13, 2019
TIME
LST
Temp Definition
°C
Dew Point Definition
°C
Rel Hum Definition
%
Precip. Amount Definition
mm

Wind Dir Definition
10's deg

Wind Spd Definition
km/h
Visibility Definition
km
Stn Press Definition
kPa
Hmdx Definition


Wind Chill Definition


Weather Definition


00:00 1.1 LegendMM LegendMM LegendMM 36 5   96.99     LegendNANA
01:00 1.1 LegendMM LegendMM LegendMM 1 5   97.03     LegendNANA
02:00 0.6 LegendMM LegendMM LegendMM 34 6   97.08     LegendNANA
03:00 0.2 LegendMM LegendMM LegendMM 35 8   97.13     LegendNANA
04:00 0.2 LegendMM LegendMM LegendMM 33 6   97.17     LegendNANA
05:00 -0.1 LegendMM LegendMM LegendMM 33 9   97.23   -3 LegendNANA
06:00 -0.2 LegendMM LegendMM LegendMM 32 14   97.31   -4 LegendNANA
07:00 0.0 LegendMM LegendMM LegendMM 33 9   97.35   -3 LegendNANA
08:00 0.1 LegendMM LegendMM LegendMM 33 11   97.42     LegendNANA
09:00 0.0 LegendMM LegendMM LegendMM 32 11   97.50   -4 LegendNANA
10:00 1.1 LegendMM LegendMM LegendMM 34 10   97.54     LegendNANA
11:00 2.8 LegendMM LegendMM LegendMM 1 9   97.56     LegendNANA
12:00 4.4 LegendMM LegendMM LegendMM 32 13   97.56     LegendNANA
13:00 4.6 LegendMM LegendMM LegendMM 30 17   97.57     LegendNANA
14:00 4.4 LegendMM LegendMM LegendMM 30 16   97.60     LegendNANA
15:00 3.6 LegendMM LegendMM LegendMM 29 18   97.68     LegendNANA
16:00 2.9 LegendMM LegendMM LegendMM 29 14   97.71     LegendNANA
17:00 2.7 LegendMM LegendMM LegendMM 29 8   97.76     LegendNANA
18:00 2.4 LegendMM LegendMM LegendMM 26 5   97.80     LegendNANA
19:00 2.1 LegendMM LegendMM LegendMM 26 5   97.79     LegendNANA
20:00 2.1 LegendMM LegendMM LegendMM 28 9   97.80     LegendNANA
21:00 2.0 LegendMM LegendMM LegendMM 28 10   97.82     LegendNANA
22:00 1.4 LegendMM LegendMM LegendMM 27 9   97.81     LegendNANA
23:00 1.2 LegendMM LegendMM LegendMM 27 8   97.82     LegendNANA

Notes on Data Quality.

Legend

  • E = Estimated
  • M = Missing
  • NA = Not Available*
  • [empty] = Indicates an unobserved value
Date modified: